Time,TemperatureF,DewpointF,PressureIn,WindDirection,WindDirectionDegrees,WindSpeedMPH,WindSpeedGustMPH,Humidity,HourlyPrecipIn,Conditions,Clouds,dailyrainin,SoftwareType,DateUTC
2013-06-20 00:05:00,76.2,75.0,30.02,South,174,0.0,0.0,95,0.00,,,0.00,weatherlink.com 1.10,2013-06-20 05:05:00,
2013-06-20 00:20:00,76.1,75.0,30.01,South,174,0.0,0.0,95,0.00,,,0.00,weatherlink.com 1.10,2013-06-20 05:20:00,
2013-06-20 00:35:00,75.7,74.0,30.01,South,174,0.0,0.0,96,0.00,,,0.00,weatherlink.com 1.10,2013-06-20 05:35:00,
2013-06-20 00:50:00,76.0,75.0,30.02,South,174,0.0,0.0,96,0.00,,,0.00,weatherlink.com 1.10,2013-06-20 05:50:00,
2013-06-20 01:05:00,75.9,75.0,30.02,South,174,0.0,0.0,96,0.00,,,0.00,weatherlink.com 1.10,2013-06-20 06:05:00,
2013-06-20 01:20:00,75.9,75.0,30.01,South,175,0.0,0.0,96,0.00,,,0.00,weatherlink.com 1.10,2013-06-20 06:20:00,
2013-06-20 01:35:00,75.7,74.0,30.01,South,175,0.0,0.0,96,0.00,,,0.00,weatherlink.com 1.10,2013-06-20 06:35:00,
2013-06-20 01:50:00,75.4,74.0,30.01,South,174,0.0,0.0,96,0.00,,,0.00,weatherlink.com 1.10,2013-06-20 06:50:00,
2013-06-20 02:05:00,75.3,74.0,30.01,South,174,0.0,0.0,97,0.00,,,0.00,weatherlink.com 1.10,2013-06-20 07:05:00,
2013-06-20 02:20:00,75.4,74.0,30.01,South,175,0.0,0.0,97,0.00,,,0.00,weatherlink.com 1.10,2013-06-20 07:20:00,
2013-06-20 02:35:00,75.1,74.0,30.00,South,172,0.0,0.0,97,0.00,,,0.00,weatherlink.com 1.10,2013-06-20 07:35:00,
2013-06-20 02:50:00,75.0,74.0,30.00,South,172,0.0,0.0,97,0.00,,,0.00,weatherlink.com 1.10,2013-06-20 07:50:00,
2013-06-20 03:05:00,74.7,74.0,30.00,South,172,0.0,0.0,97,0.00,,,0.00,weatherlink.com 1.10,2013-06-20 08:05:00,
2013-06-20 03:20:00,74.1,73.0,30.00,South,172,0.0,0.0,97,0.00,,,0.00,weatherlink.com 1.10,2013-06-20 08:20:00,
2013-06-20 03:35:00,74.3,74.0,30.00,South,172,0.0,0.0,98,0.00,,,0.00,weatherlink.com 1.10,2013-06-20 08:35:00,
2013-06-20 03:49:00,74.5,74.0,30.00,South,172,0.0,0.0,98,0.00,,,0.00,weatherlink.com 1.10,2013-06-20 08:49:00,
2013-06-20 04:04:00,74.6,74.0,30.00,South,172,0.0,0.0,98,0.00,,,0.00,weatherlink.com 1.10,2013-06-20 09:04:00,
2013-06-20 04:19:00,74.8,74.0,30.00,South,172,0.0,0.0,98,0.00,,,0.00,weatherlink.com 1.10,2013-06-20 09:19:00,
2013-06-20 04:34:00,74.9,74.0,30.00,South,172,0.0,0.0,98,0.00,,,0.00,weatherlink.com 1.10,2013-06-20 09:34:00,
2013-06-20 04:49:00,74.9,74.0,30.00,South,172,0.0,0.0,98,0.00,,,0.00,weatherlink.com 1.10,2013-06-20 09:49:00,
2013-06-20 05:04:00,74.8,74.0,30.00,South,172,0.0,0.0,98,0.00,,,0.00,weatherlink.com 1.10,2013-06-20 10:04:00,
2013-06-20 05:19:00,75.1,74.0,30.00,South,172,0.0,0.0,98,0.00,,,0.00,weatherlink.com 1.10,2013-06-20 10:19:00,
2013-06-20 05:34:00,74.6,74.0,30.00,South,172,0.0,0.0,98,0.00,,,0.00,weatherlink.com 1.10,2013-06-20 10:34:00,
2013-06-20 05:49:00,74.3,74.0,30.01,South,172,0.0,0.0,98,0.00,,,0.00,weatherlink.com 1.10,2013-06-20 10:49:00,
2013-06-20 06:04:00,74.7,74.0,30.02,South,172,0.0,0.0,98,0.00,,,0.00,weatherlink.com 1.10,2013-06-20 11:04:00,
2013-06-20 06:19:00,74.8,74.0,30.02,South,172,0.0,0.0,98,0.00,,,0.00,weatherlink.com 1.10,2013-06-20 11:19:00,
2013-06-20 06:34:00,75.0,74.0,30.03,South,172,0.0,0.0,98,0.00,,,0.00,weatherlink.com 1.10,2013-06-20 11:34:00,
2013-06-20 06:49:00,75.4,75.0,30.03,South,172,0.0,0.0,98,0.00,,,0.00,weatherlink.com 1.10,2013-06-20 11:49:00,
2013-06-20 07:04:00,76.5,76.0,30.04,South,172,0.0,0.0,98,0.00,,,0.00,weatherlink.com 1.10,2013-06-20 12:04:00,
2013-06-20 07:19:00,77.4,77.0,30.04,South,172,0.0,0.0,98,0.00,,,0.00,weatherlink.com 1.10,2013-06-20 12:19:00,
2013-06-20 07:34:00,78.6,78.0,30.05,South,172,0.0,0.0,97,0.00,,,0.00,weatherlink.com 1.10,2013-06-20 12:34:00,
2013-06-20 07:49:00,79.8,78.0,30.06,South,172,0.0,0.0,94,0.00,,,0.00,weatherlink.com 1.10,2013-06-20 12:49:00,
2013-06-20 08:04:00,82.3,78.0,30.07,South,172,0.0,0.0,88,0.00,,,0.00,weatherlink.com 1.10,2013-06-20 13:04:00,
2013-06-20 08:19:00,83.6,78.0,30.07,SSW,210,1.0,4.0,83,0.00,,,0.00,weatherlink.com 1.10,2013-06-20 13:19:00,
2013-06-20 08:35:00,84.2,78.0,30.07,SW,214,1.0,5.0,81,0.00,,,0.00,weatherlink.com 1.10,2013-06-20 13:35:00,
2013-06-20 08:50:00,84.8,78.0,30.07,SSW,207,3.0,5.0,79,0.00,,,0.00,weatherlink.com 1.10,2013-06-20 13:50:00,
2013-06-20 09:05:00,85.0,78.0,30.08,SSW,210,4.0,6.0,79,0.00,,,0.00,weatherlink.com 1.10,2013-06-20 14:05:00,
2013-06-20 09:20:00,86.0,79.0,30.09,SW,216,3.0,6.0,79,0.00,,,0.00,weatherlink.com 1.10,2013-06-20 14:20:00,
2013-06-20 09:35:00,86.6,77.0,30.09,SW,229,2.0,9.0,74,0.00,,,0.00,weatherlink.com 1.10,2013-06-20 14:35:00,
2013-06-20 09:50:00,86.4,78.0,30.09,South,181,4.0,7.0,75,0.00,,,0.00,weatherlink.com 1.10,2013-06-20 14:50:00,
2013-06-20 10:05:00,87.0,77.0,30.10,WNW,293,2.0,6.0,72,0.00,,,0.00,weatherlink.com 1.10,2013-06-20 15:05:00,
2013-06-20 10:20:00,87.1,76.0,30.10,WSW,253,1.0,5.0,70,0.00,,,0.00,weatherlink.com 1.10,2013-06-20 15:20:00,
2013-06-20 10:35:00,87.7,77.0,30.10,SSW,209,4.0,6.0,70,0.00,,,0.00,weatherlink.com 1.10,2013-06-20 15:35:00,
2013-06-20 10:50:00,88.7,77.0,30.10,SW,228,0.0,5.0,68,0.00,,,0.00,weatherlink.com 1.10,2013-06-20 15:50:00,
2013-06-20 11:06:00,89.7,76.0,30.10,SW,235,0.0,6.0,64,0.00,,,0.00,weatherlink.com 1.10,2013-06-20 16:06:00,
2013-06-20 11:21:00,89.6,75.0,30.10,SE,145,1.0,8.0,62,0.00,,,0.00,weatherlink.com 1.10,2013-06-20 16:21:00,
2013-06-20 11:35:00,89.6,76.0,30.10,South,170,1.0,8.0,64,0.00,,,0.00,weatherlink.com 1.10,2013-06-20 16:35:00,
2013-06-20 11:50:00,89.9,76.0,30.10,West,264,2.0,5.0,63,0.00,,,0.00,weatherlink.com 1.10,2013-06-20 16:50:00,
2013-06-20 12:05:00,89.9,74.0,30.09,NNE,25,2.0,7.0,60,0.00,,,0.00,weatherlink.com 1.10,2013-06-20 17:05:00,
2013-06-20 12:20:00,90.7,74.0,30.09,WNW,293,3.0,6.0,59,0.00,,,0.00,weatherlink.com 1.10,2013-06-20 17:20:00,
2013-06-20 12:35:00,90.9,74.0,30.09,West,280,4.0,8.0,58,0.00,,,0.00,weatherlink.com 1.10,2013-06-20 17:35:00,
2013-06-20 12:51:00,91.8,74.0,30.08,SW,219,4.0,7.0,56,0.00,,,0.00,weatherlink.com 1.10,2013-06-20 17:51:00,
2013-06-20 13:06:00,92.0,74.0,30.08,SW,217,5.0,8.0,55,0.00,,,0.00,weatherlink.com 1.10,2013-06-20 18:06:00,
2013-06-20 13:21:00,92.2,76.0,30.07,SSE,155,5.0,8.0,59,0.00,,,0.00,weatherlink.com 1.10,2013-06-20 18:21:00,
2013-06-20 13:36:00,91.6,74.0,30.07,WSW,245,3.0,8.0,56,0.00,,,0.00,weatherlink.com 1.10,2013-06-20 18:36:00,
2013-06-20 13:51:00,92.5,75.0,30.06,SW,231,3.0,9.0,57,0.00,,,0.00,weatherlink.com 1.10,2013-06-20 18:51:00,
2013-06-20 14:06:00,92.8,74.0,30.06,SW,232,6.0,10.0,55,0.00,,,0.00,weatherlink.com 1.10,2013-06-20 19:06:00,
2013-06-20 14:21:00,92.9,73.0,30.06,WNW,299,4.0,6.0,53,0.00,,,0.00,weatherlink.com 1.10,2013-06-20 19:21:00,
2013-06-20 14:36:00,92.4,71.0,30.05,WNW,296,6.0,9.0,50,0.00,,,0.00,weatherlink.com 1.10,2013-06-20 19:36:00,
2013-06-20 14:51:00,93.3,72.0,30.05,SSW,194,3.0,8.0,51,0.00,,,0.00,weatherlink.com 1.10,2013-06-20 19:51:00,
2013-06-20 15:06:00,93.8,76.0,30.05,SE,143,1.0,9.0,56,0.00,,,0.00,weatherlink.com 1.10,2013-06-20 20:06:00,
2013-06-20 15:21:00,92.2,74.0,30.05,SW,229,7.0,11.0,56,0.00,,,0.00,weatherlink.com 1.10,2013-06-20 20:21:00,
2013-06-20 15:36:00,90.4,76.0,30.05,South,187,10.0,16.0,63,0.00,,,0.00,weatherlink.com 1.10,2013-06-20 20:36:00,
2013-06-20 15:51:00,87.8,75.0,30.05,SE,136,6.0,15.0,65,0.00,,,0.00,weatherlink.com 1.10,2013-06-20 20:51:00,
2013-06-20 16:06:00,85.0,75.0,30.06,ENE,68,12.0,15.0,71,0.00,,,0.00,weatherlink.com 1.10,2013-06-20 21:06:00,
2013-06-20 16:21:00,82.5,73.0,30.08,SW,216,7.0,12.0,74,0.00,,,0.00,weatherlink.com 1.10,2013-06-20 21:21:00,
2013-06-20 16:36:00,79.8,72.0,30.08,NNE,16,1.0,8.0,77,0.09,,,0.09,weatherlink.com 1.10,2013-06-20 21:36:00,
2013-06-20 16:51:00,77.5,73.0,30.07,NNE,29,1.0,3.0,86,0.12,,,0.12,weatherlink.com 1.10,2013-06-20 21:51:00,
2013-06-20 17:06:00,76.7,73.0,30.06,NE,46,3.0,5.0,89,0.14,,,0.14,weatherlink.com 1.10,2013-06-20 22:06:00,
2013-06-20 17:21:00,75.6,73.0,30.06,North,8,2.0,5.0,91,0.15,,,0.15,weatherlink.com 1.10,2013-06-20 22:21:00,
2013-06-20 17:36:00,76.0,74.0,30.05,NNE,15,0.0,4.0,92,0.05,,,0.15,weatherlink.com 1.10,2013-06-20 22:36:00,
2013-06-20 17:51:00,76.8,74.0,30.05,NE,44,1.0,2.0,91,0.03,,,0.15,weatherlink.com 1.10,2013-06-20 22:51:00,
2013-06-20 18:06:00,77.8,75.0,30.04,SE,139,1.0,1.0,91,0.00,,,0.15,weatherlink.com 1.10,2013-06-20 23:06:00,
2013-06-20 18:21:00,78.3,75.0,30.04,SE,132,0.0,1.0,91,0.00,,,0.15,weatherlink.com 1.10,2013-06-20 23:21:00,
2013-06-20 18:36:00,79.8,76.0,30.03,ESE,118,1.0,2.0,88,0.00,,,0.15,weatherlink.com 1.10,2013-06-20 23:36:00,
2013-06-20 18:51:00,81.4,76.0,30.03,WSW,238,0.0,3.0,85,0.00,,,0.15,weatherlink.com 1.10,2013-06-20 23:51:00,
2013-06-20 19:06:00,82.7,76.0,30.04,SSE,160,0.0,2.0,80,0.00,,,0.15,weatherlink.com 1.10,2013-06-21 00:06:00,
2013-06-20 19:21:00,82.7,76.0,30.04,SE,143,0.0,2.0,81,0.00,,,0.15,weatherlink.com 1.10,2013-06-21 00:21:00,
2013-06-20 19:36:00,82.3,77.0,30.03,SE,146,0.0,1.0,83,0.00,,,0.15,weatherlink.com 1.10,2013-06-21 00:36:00,
2013-06-20 19:51:00,81.6,77.0,30.03,SE,146,1.0,2.0,85,0.00,,,0.15,weatherlink.com 1.10,2013-06-21 00:51:00,
2013-06-20 20:06:00,80.6,76.0,30.03,SE,146,0.0,2.0,85,0.00,,,0.15,weatherlink.com 1.10,2013-06-21 01:06:00,
2013-06-20 20:21:00,80.0,76.0,30.04,SE,136,0.0,1.0,87,0.00,,,0.15,weatherlink.com 1.10,2013-06-21 01:21:00,
2013-06-20 20:36:00,79.2,76.0,30.04,SE,135,0.0,0.0,89,0.00,,,0.15,weatherlink.com 1.10,2013-06-21 01:36:00,
2013-06-20 20:51:00,78.6,76.0,30.05,SE,140,0.0,0.0,91,0.00,,,0.15,weatherlink.com 1.10,2013-06-21 01:51:00,
2013-06-20 21:06:00,78.4,76.0,30.05,SE,139,0.0,1.0,92,0.00,,,0.15,weatherlink.com 1.10,2013-06-21 02:06:00,
2013-06-20 21:21:00,78.3,76.0,30.05,SSE,149,0.0,1.0,93,0.00,,,0.15,weatherlink.com 1.10,2013-06-21 02:21:00,
2013-06-20 21:36:00,78.1,76.0,30.05,SSE,154,0.0,1.0,93,0.00,,,0.15,weatherlink.com 1.10,2013-06-21 02:36:00,
2013-06-20 21:51:00,77.8,76.0,30.05,SSE,153,0.0,1.0,94,0.00,,,0.15,weatherlink.com 1.10,2013-06-21 02:51:00,
2013-06-20 22:06:00,77.8,76.0,30.05,SSE,153,0.0,1.0,94,0.00,,,0.15,weatherlink.com 1.10,2013-06-21 03:06:00,
2013-06-20 22:21:00,77.7,76.0,30.05,SSE,153,0.0,0.0,94,0.00,,,0.15,weatherlink.com 1.10,2013-06-21 03:21:00,
2013-06-20 22:36:00,77.7,76.0,30.06,SSE,153,0.0,0.0,94,0.00,,,0.15,weatherlink.com 1.10,2013-06-21 03:36:00,
2013-06-20 22:51:00,77.7,76.0,30.07,SSE,152,0.0,1.0,95,0.00,,,0.15,weatherlink.com 1.10,2013-06-21 03:51:00,
2013-06-20 23:06:00,77.4,76.0,30.07,SSE,152,0.0,0.0,95,0.00,,,0.15,weatherlink.com 1.10,2013-06-21 04:06:00,
2013-06-20 23:21:00,77.3,76.0,30.07,SSE,152,0.0,0.0,95,0.00,,,0.15,weatherlink.com 1.10,2013-06-21 04:21:00,
2013-06-20 23:35:00,77.2,76.0,30.07,SSE,153,0.0,0.0,96,0.00,,,0.15,weatherlink.com 1.10,2013-06-21 04:35:00,
2013-06-20 23:50:00,76.9,76.0,30.07,SSE,153,0.0,0.0,96,0.00,,,0.15,weatherlink.com 1.10,2013-06-21 04:50:00,